This is the latest recevied weather packets stored in our database for station/object KC5DAQ-2. If no packets are shown the sender has not sent any weather packets the latest 10 day(s).
| Time | Temp. | Humidity | Pressure | Rain* | Wind** | Luminosity | Snow |
|---|---|---|---|---|---|---|---|
| 1777581913 | 22.22° C | 91% | 1003.1 hPa | 0 mm | - | 99 W/m² | - |
| 1777581853 | 22.22° C | 91% | 1003 hPa | 0 mm | - | 93 W/m² | - |
| 1777581791 | 22.22° C | 91% | 1003 hPa | 0 mm | - | 83 W/m² | - |
| 1777581731 | 22.22° C | 91% | 1003 hPa | 0 mm | - | 83 W/m² | - |
| 1777581673 | 22.22° C | 91% | 1003 hPa | 0 mm | - | 83 W/m² | - |
| 1777581611 | 22.22° C | 91% | 1003.1 hPa | 0 mm | - | 83 W/m² | - |
| 1777581552 | 22.22° C | 91% | 1003.1 hPa | 0 mm | - | 79 W/m² | - |
| 1777581493 | 22.22° C | 91% | 1003.3 hPa | 0 mm | - | 79 W/m² | - |
| 1777581431 | 22.22° C | 91% | 1003.2 hPa | 0 mm | - | 79 W/m² | - |
| 1777581372 | 22.22° C | 91% | 1003.4 hPa | 0 mm | - | 76 W/m² | - |
| 1777581312 | 22.22° C | 91% | 1003.5 hPa | 0 mm | - | 84 W/m² | - |
| 1777581256 | 22.22° C | 91% | 1003.5 hPa | 0 mm | - | 84 W/m² | - |
| 1777581193 | 22.78° C | 91% | 1003.6 hPa | 0 mm | - | 84 W/m² | - |
| 1777581134 | 22.78° C | 91% | 1003.6 hPa | 0 mm | - | 84 W/m² | - |
| 1777581071 | 22.78° C | 91% | 1003.6 hPa | 0 mm | - | 84 W/m² | - |
| 1777581013 | 22.78° C | 91% | 1003.5 hPa | 0 mm | - | 84 W/m² | - |
| 1777580952 | 22.78° C | 91% | 1003.7 hPa | 0 mm | - | 84 W/m² | - |
| 1777580892 | 22.78° C | 91% | 1003.7 hPa | 0 mm | - | 77 W/m² | - |
| 1777580831 | 22.78° C | 91% | 1003.7 hPa | 0 mm | - | 77 W/m² | - |
| 1777580774 | 22.78° C | 90% | 1003.7 hPa | 0 mm | - | 83 W/m² | - |
| 1777580711 | 22.78° C | 90% | 1003.7 hPa | 0 mm | - | 102 W/m² | - |
| 1777580653 | 22.78° C | 90% | 1003.7 hPa | 0 mm | - | 114 W/m² | - |
| 1777580591 | 22.78° C | 90% | 1003.7 hPa | 0 mm | - | 74 W/m² | - |
| 1777580531 | 22.78° C | 90% | 1003.7 hPa | 0 mm | - | 74 W/m² | - |
| 1777580471 | 22.78° C | 90% | 1003.6 hPa | 0 mm | - | 74 W/m² | - |
* Rain latest hour (hover to see other rain measurements)
** Current wind speed in m/s (hover to see current wind gust speed)